Weather History for Jackson, KY

Change the Weather History Date:

Tuesday, June 18, 2013

  Actual Average Record
Temperature  
Mean Temperature 70 °F 73 °F  
Max Temperature 77 °F 82 °F 94 °F (2007)
Min Temperature 63 °F 63 °F 52 °F (1999)
Degree Days  
Heating Degree Days 0 0  
Month to date heating degree days 0 9  
Since 1 June heating degree days 0 9  
Since 1 July heating degree days 4364 4231  
Cooling Degree Days 5 8  
Month to date cooling degree days 113 114  
Year to date cooling degree days 261 250  
Since 1 June cooling degree days 113 114  
Growing Degree Days 18 (Base 50)    
Moisture  
Dew Point 63 °F    
Average Humidity 82    
Maximum Humidity 100    
Minimum Humidity 64    
Precipitation  
Precipitation 0.68 in 0.15 in 1.30 in (1992)
Month to date precipitation 5.22 2.93  
Year to date precipitation 25.42 23.44  
Snow  
Snow 0.00 in 0.00 in - ()
Month to date snowfall 0.0 0.0  
Since 1 June snowfall 0.0 0.0  
Since 1 July snowfall 20.0 23.5  
Snow Depth 0.00 in    
Sea Level Pressure  
Sea Level Pressure 29.93 in    
Wind  
Wind Speed 1 mph (NNW)    
Max Wind Speed 9 mph    
Max Gust Speed 16 mph    
Visibility 4 miles    
Events Fog , Rain    
T = Trace of Precipitation, MM = Missing Value Source: NWS Daily Summary

Daily Weather History Graph

Daily Weather History Graph

Search for Another Location

Airport:

Trip Planner

Search our weather history database for the weather conditions in past years. The results will help you decide how hot, cold, wet, or windy it might be!

Date:

Astronomy

Jun. 18, 2013 Rise Set
Actual Time 6:11 AM EDT 8:57 PM EDT
Civil Twilight 5:40 AM EDT 9:28 PM EDT
Nautical Twilight 5:01 AM EDT 10:07 PM EDT
Astronomical Twilight 4:17 AM EDT 10:51 PM EDT
Moon 3:45 PM EDT (6/18) 2:14 AM EDT (6/18)
Length of Visible Light 15h 48m
Length of Day
14h 45m
Waxing Gibbous, 70% of the Moon is Illuminated
Jun 18
Waxing Gibbous
Jun 23
Full
Jun 30
Last Quarter
Jul 8
New
Jul 15
First Quarter

Hourly Weather History & Observations

Time (EDT) Temp. Dew Point Humidity Pressure Visibility Wind Dir Wind Speed Gust Speed Precip Events Conditions
12:06 AM 64.4 °F 62.6 °F 94% 30.02 in 3.0 mi NW 3.5 mph - 0.02 in Rain Rain
12:21 AM 64.4 °F 62.6 °F 94% 30.01 in 4.0 mi Calm Calm - 0.05 in Rain Rain
12:49 AM 64.4 °F 62.6 °F 94% 29.98 in 2.0 mi NNW 3.5 mph - 0.10 in Rain Rain
12:53 AM 64.0 °F 63.0 °F 96% 29.94 in 2.5 mi Calm Calm - 0.10 in Rain Light Rain
1:00 AM 64.4 °F 62.6 °F 94% 29.98 in 5.0 mi Calm Calm - 0.00 in Rain Light Rain
1:05 AM 64.4 °F 62.6 °F 94% 29.97 in 1.5 mi Calm Calm - 0.00 in Rain Light Rain
1:16 AM 64.4 °F 62.6 °F 94% 29.95 in 2.5 mi Variable 4.6 mph - 0.01 in Rain Light Rain
1:23 AM 64.4 °F 60.8 °F 88% 29.94 in 10.0 mi NW 6.9 mph - 0.01 in Rain Light Rain
1:53 AM 64.0 °F 62.1 °F 93% 29.88 in 7.0 mi Calm Calm - 0.01 in Rain Light Rain
2:43 AM 62.6 °F 62.6 °F 100% 29.90 in 1.8 mi Calm Calm - 0.02 in Rain Light Rain
2:50 AM 64.4 °F 62.6 °F 94% 29.90 in 3.0 mi Calm Calm - 0.02 in Rain Light Rain
2:53 AM 64.0 °F 61.0 °F 90% 29.86 in 4.0 mi Calm Calm - 0.02 in Rain Light Rain
2:56 AM 62.6 °F 62.6 °F 100% 29.90 in 1.2 mi Calm Calm - 0.00 in Rain Light Rain
2:58 AM 62.6 °F 62.6 °F 100% 29.90 in 0.8 mi Variable 3.5 mph - 0.00 in   Overcast
3:19 AM 62.6 °F 62.6 °F 100% 29.91 in 1.0 mi Calm Calm - 0.00 in   Overcast
3:22 AM 62.6 °F 62.6 °F 100% 29.91 in 2.0 mi Calm Calm - 0.00 in   Overcast
3:27 AM 62.6 °F 62.6 °F 100% 29.91 in 1.5 mi Calm Calm - 0.00 in   Overcast
3:42 AM 64.4 °F 62.6 °F 94% 29.93 in 0.5 mi Calm Calm - 0.00 in Fog , Rain Light Rain
3:53 AM 63.0 °F 63.0 °F 100% 29.88 in 0.8 mi Calm Calm - 0.01 in Rain Light Rain
4:15 AM 62.6 °F 62.6 °F 100% 29.92 in 1.2 mi Calm Calm - 0.01 in Rain Light Rain
4:28 AM 62.6 °F 62.6 °F 100% 29.92 in 0.5 mi Calm Calm - 0.01 in Fog , Rain Light Rain
4:45 AM 62.6 °F 62.6 °F 100% 29.93 in 1.0 mi Calm Calm - 0.01 in Rain Light Rain
4:53 AM 63.0 °F 62.1 °F 97% 29.89 in 1.5 mi Calm Calm - 0.01 in Rain Light Rain
5:07 AM 62.6 °F 62.6 °F 100% 29.93 in 0.5 mi Calm Calm - 0.00 in Fog , Rain Light Rain
5:14 AM 62.6 °F 62.6 °F 100% 29.93 in 1.0 mi Calm Calm - 0.01 in Rain Light Rain
5:18 AM 62.6 °F 62.6 °F 100% 29.93 in 2.0 mi Calm Calm - 0.01 in Rain Light Rain
5:26 AM 62.6 °F 62.6 °F 100% 29.93 in 4.0 mi Calm Calm - 0.02 in Rain Light Rain
5:32 AM 62.6 °F 62.6 °F 100% 29.93 in 1.5 mi Calm Calm - 0.03 in Rain Rain
5:41 AM 62.6 °F 62.6 °F 100% 29.92 in 0.2 mi Calm Calm - 0.04 in Fog , Rain Light Rain
5:53 AM 63.0 °F 62.1 °F 97% 29.88 in 2.0 mi Calm Calm - 0.04 in Rain Light Rain
6:00 AM 62.6 °F 62.6 °F 100% 29.92 in 1.5 mi NW 3.5 mph - 0.00 in Rain Light Rain
6:08 AM 62.6 °F 62.6 °F 100% 29.92 in 0.8 mi NW 3.5 mph - 0.01 in Rain Light Rain
6:11 AM 62.6 °F 62.6 °F 100% 29.92 in 2.0 mi Calm Calm - 0.01 in Rain Light Rain
6:18 AM 62.6 °F 62.6 °F 100% 29.93 in 6.0 mi Calm Calm - 0.02 in Rain Light Rain
6:26 AM 62.6 °F 62.6 °F 100% 29.93 in 1.8 mi Calm Calm - 0.03 in Rain Light Rain
6:28 AM 62.6 °F 62.6 °F 100% 29.93 in 0.8 mi Calm Calm - 0.03 in Rain Light Rain
6:43 AM 62.6 °F 62.6 °F 100% 29.93 in 0.2 mi Calm Calm - 0.04 in Fog , Rain Light Rain
6:53 AM 63.0 °F 62.1 °F 97% 29.90 in 0.2 mi Calm Calm - 0.05 in Fog , Rain Light Rain
7:16 AM 62.6 °F 62.6 °F 100% 29.94 in 1.0 mi Calm Calm - 0.01 in Rain Light Rain
7:23 AM 62.6 °F 62.6 °F 100% 29.94 in 0.2 mi Calm Calm - 0.02 in Fog , Rain Light Rain
7:36 AM 62.6 °F 62.6 °F 100% 29.94 in 1.8 mi Calm Calm - 0.03 in Rain Light Rain
7:44 AM 62.6 °F 62.6 °F 100% 29.94 in 0.8 mi Calm Calm - 0.06 in Rain Rain
7:53 AM 63.0 °F 62.1 °F 97% 29.91 in 1.0 mi Calm Calm - 0.06 in Rain Light Rain
7:59 AM 62.6 °F 62.6 °F 100% 29.94 in 3.0 mi Calm Calm - 0.01 in Rain Light Rain
8:02 AM 62.6 °F 62.6 °F 100% 29.94 in 1.8 mi Calm Calm - 0.01 in Rain Light Rain
8:05 AM 62.6 °F 62.6 °F 100% 29.94 in 0.8 mi Calm Calm - 0.01 in Rain Light Rain
8:19 AM 62.6 °F 62.6 °F 100% 29.94 in 0.2 mi Calm Calm - 0.02 in Fog , Rain Light Rain
8:35 AM 62.6 °F 62.6 °F 100% 29.94 in 1.2 mi Calm Calm - 0.03 in Rain Light Rain
8:37 AM 62.6 °F 62.6 °F 100% 29.94 in 2.0 mi Calm Calm - 0.03 in Rain Light Rain
8:44 AM 62.6 °F 62.6 °F 100% 29.94 in 2.0 mi Calm Calm - 0.04 in Rain Rain
8:47 AM 62.6 °F 62.6 °F 100% 29.94 in 1.5 mi Calm Calm - 0.05 in Rain Rain
8:53 AM 63.0 °F 63.0 °F 100% 29.91 in 0.5 mi Calm Calm - 0.09 in Fog , Rain Heavy Rain
8:59 AM 62.6 °F 62.6 °F 100% 29.95 in 0.2 mi Calm Calm - 0.04 in Fog , Rain Rain
9:09 AM 62.6 °F 62.6 °F 100% 29.95 in 1.0 mi Calm Calm - 0.08 in Rain Heavy Rain
9:19 AM 62.6 °F 62.6 °F 100% 29.95 in 1.0 mi Calm Calm - 0.16 in Rain Heavy Rain
9:30 AM 62.6 °F 62.6 °F 100% 29.95 in 2.0 mi Calm Calm - 0.21 in Rain Rain
9:39 AM 62.6 °F 62.6 °F 100% 29.96 in 5.0 mi Calm Calm - 0.22 in Rain Light Rain
9:53 AM 64.0 °F 62.1 °F 93% 29.92 in 1.8 mi Calm Calm - 0.23 in Rain Rain
9:56 AM 64.4 °F 62.6 °F 94% 29.96 in 0.8 mi Calm Calm - 0.01 in Rain Rain
10:11 AM 64.4 °F 62.6 °F 94% 29.96 in 1.5 mi Calm Calm - 0.05 in Rain Rain
10:19 AM 64.4 °F 62.6 °F 94% 29.97 in 1.8 mi Calm Calm - 0.06 in Rain Rain
10:27 AM 64.4 °F 62.6 °F 94% 29.97 in 1.2 mi Calm Calm - 0.10 in Rain Heavy Rain
10:33 AM 64.4 °F 62.6 °F 94% 29.97 in 2.0 mi NNW 3.5 mph - 0.12 in Rain Light Rain
10:48 AM 64.4 °F 62.6 °F 94% 29.97 in 3.0 mi Variable 4.6 mph - 0.13 in Rain Light Rain
10:53 AM 64.0 °F 62.1 °F 93% 29.94 in 3.0 mi Variable 3.5 mph - 0.14 in Rain Light Rain
11:27 AM 64.4 °F 62.6 °F 94% 29.97 in 5.0 mi Calm Calm - 0.02 in Rain Light Rain
11:53 AM 64.0 °F 63.0 °F 96% 29.96 in 8.0 mi Variable 3.5 mph - 0.02 in Rain Light Rain
12:53 PM 66.9 °F 63.0 °F 87% 29.93 in 10.0 mi Calm Calm - 0.00 in   Overcast
1:04 PM 68.0 °F 64.4 °F 88% 29.96 in 10.0 mi Calm Calm - N/A   Overcast
1:53 PM 66.9 °F 63.0 °F 87% 29.92 in 10.0 mi SE 4.6 mph - N/A   Overcast
2:24 PM 68.0 °F 62.6 °F 83% 29.94 in 10.0 mi Variable 3.5 mph - N/A   Overcast
2:53 PM 71.1 °F 64.0 °F 78% 29.91 in 10.0 mi Calm Calm - N/A   Mostly Cloudy
3:25 PM 71.6 °F 62.6 °F 73% 29.95 in 10.0 mi Calm Calm - N/A   Mostly Cloudy
3:53 PM 72.0 °F 62.1 °F 71% 29.91 in 10.0 mi Calm Calm - N/A   Scattered Clouds
4:25 PM 71.6 °F 62.6 °F 73% 29.95 in 10.0 mi Calm Calm - N/A   Mostly Cloudy
4:35 PM 73.4 °F 62.6 °F 69% 29.94 in 10.0 mi Calm Calm - N/A   Mostly Cloudy
4:42 PM 73.4 °F 60.8 °F 65% 29.95 in 10.0 mi Calm Calm - N/A   Mostly Cloudy
4:53 PM 73.9 °F 62.1 °F 66% 29.91 in 10.0 mi Calm Calm - N/A   Mostly Cloudy
5:16 PM 73.4 °F 62.6 °F 69% 29.94 in 10.0 mi Calm Calm - N/A   Mostly Cloudy
5:53 PM 75.0 °F 62.1 °F 64% 29.90 in 10.0 mi Calm Calm - N/A   Mostly Cloudy
6:16 PM 75.2 °F 62.6 °F 65% 29.92 in 10.0 mi Calm Calm - N/A   Scattered Clouds
6:53 PM 73.9 °F 62.1 °F 66% 29.87 in 10.0 mi Calm Calm - N/A   Clear
7:53 PM 73.9 °F 62.1 °F 66% 29.89 in 10.0 mi Calm Calm - N/A   Clear
8:53 PM 70.0 °F 62.1 °F 76% 29.93 in 10.0 mi Calm Calm - N/A   Clear
9:53 PM 71.1 °F 62.1 °F 73% 29.94 in 10.0 mi Calm Calm - N/A   Clear
10:53 PM 66.9 °F 62.1 °F 84% 29.97 in 10.0 mi Calm Calm - N/A   Clear
11:53 PM 66.0 °F 63.0 °F 90% 29.97 in 10.0 mi Calm Calm - N/A   Clear